Location: Unspecified
(0.0000°N, 0.0000°E)
Time: 18:16:52
(UTC+00:00)

Envisat - Pass Details

Date: 21 July 2017
Orbit: 764 x 766 km, 98.2° (Epoch: 23 September)

Event Time Altitude Azimuth Distance (km) Brightness Sun altitude
Exits shadow 20:00:19 23° 27° (NNE) 1,569 4.5 -26.5°
Drops below altitude 10° 20:02:29 10° 11° (N) 2,292 5.6 -27.0°
Sets 20:04:55 0° 3° (N) 3,216 6.5 -27.6°
